Chicago Lansing, IL

7:24 AM CST on February 22, 2018 (GMT -0600)
Lansing Municipal

Weather History for KIGQ - December, 2011

Change the Weather History Date:

Wednesday, December 7, 2011

  Actual Average (KGYY) Record (KGYY)
Temperature  
Mean Temperature 32 °F -  
Max Temperature 35 °F 35 °F 67 °F (1951)
Min Temperature 28 °F 22 °F -5 °F (1977)
Degree Days  
Heating Degree Days 33    
Moisture  
Dew Point 21 °F    
Average Humidity 65    
Maximum Humidity 80    
Minimum Humidity 35    
Precipitation  
Precipitation 0.03 in - - ()
Sea Level Pressure  
Sea Level Pressure 30.05 in    
Wind  
Wind Speed 7 mph (West)    
Max Wind Speed 20 mph    
Max Gust Speed 25 mph    
Visibility 10 miles    
Events      
Averages and records for this station are not official NWS values.
T = Trace of Precipitation, MM = Missing Value Source: NWS Daily Summary

Daily Weather History Graph

Daily Weather History Graph

Search for Another Location

Airport or City:

Trip Planner

Search our weather history database for the weather conditions in past years. The results will help you decide how hot, cold, wet, or windy it might be!

Date:

Astronomy

Dec. 07, 2011 Rise Set
Actual Time 7:02 AM CST 4:20 PM CST
Civil Twilight 6:31 AM CST 4:51 PM CST
Nautical Twilight 5:57 AM CST 5:25 PM CST
Astronomical Twilight 5:23 AM CST 5:59 PM CST
Moon 2:21 PM CST (12/7) 4:17 AM CST (12/7)
Length of Visible Light 10h 19m
Length of Day
9h 17m
Waxing Gibbous, 92% of the Moon is Illuminated
Dec 7
Waxing Gibbous
Dec 10
Full
Dec 17
Last Quarter
Dec 24
New
Jan 1
First Quarter

Hourly Weather History & Observations

Time (CST) Temp. Windchill Dew Point Humidity Pressure Visibility Wind Dir Wind Speed Gust Speed Precip Events Conditions
12:35 AM 29.8 °F - 23.2 °F 76% 30.11 in 10.0 mi Calm Calm - N/A   Overcast
12:55 AM 29.8 °F 26.3 °F 23.2 °F 76% 30.11 in 10.0 mi West 3.5 mph - N/A   Overcast
1:15 AM 30.0 °F 26.5 °F 23.2 °F 76% 30.11 in 10.0 mi WNW 3.5 mph - N/A   Overcast
1:35 AM 30.2 °F - 23.2 °F 75% 30.11 in 10.0 mi Calm Calm - N/A   Overcast
1:55 AM 30.2 °F - 23.2 °F 75% 30.11 in 10.0 mi Calm Calm - N/A   Overcast
2:15 AM 30.2 °F - 23.4 °F 76% 30.10 in 10.0 mi Calm Calm - N/A   Overcast
2:35 AM 30.2 °F - 23.9 °F 77% 30.10 in 10.0 mi Calm Calm - N/A   Overcast
2:55 AM 30.6 °F - 23.9 °F 76% 30.10 in 10.0 mi Calm Calm - N/A   Overcast
3:15 AM 30.7 °F 27.3 °F 23.9 °F 76% 30.10 in 10.0 mi West 3.5 mph - N/A   Overcast
3:35 AM 30.9 °F - 24.3 °F 76% 30.09 in 10.0 mi Calm Calm - N/A   Overcast
3:55 AM 32.0 °F 28.7 °F 24.8 °F 75% 30.08 in 10.0 mi West 3.5 mph - N/A   Overcast
4:15 AM 31.1 °F 27.7 °F 24.4 °F 76% 30.08 in 10.0 mi West 3.5 mph - N/A   Overcast
4:35 AM 31.3 °F 26.6 °F 24.6 °F 76% 30.08 in 10.0 mi West 4.6 mph - N/A   Overcast
4:55 AM 31.3 °F 25.6 °F 24.4 °F 76% 30.08 in 10.0 mi West 5.8 mph - N/A   Overcast
5:15 AM 31.3 °F 26.6 °F 24.4 °F 76% 30.08 in 10.0 mi West 4.6 mph - N/A   Overcast
5:35 AM 31.5 °F 24.2 °F 24.6 °F 76% 30.07 in 10.0 mi West 8.1 mph - N/A   Overcast
5:55 AM 31.5 °F 24.9 °F 24.6 °F 76% 30.06 in 10.0 mi West 6.9 mph - N/A   Overcast
6:15 AM 31.5 °F 25.8 °F 24.8 °F 76% 30.06 in 10.0 mi West 5.8 mph - N/A   Overcast
6:35 AM 31.3 °F 26.6 °F 24.8 °F 77% 30.06 in 10.0 mi West 4.6 mph - N/A   Overcast
6:55 AM 31.1 °F 23.7 °F 24.8 °F 77% 30.06 in 10.0 mi West 8.1 mph - N/A   Overcast
7:15 AM 30.7 °F 24.1 °F 24.6 °F 78% 30.06 in 10.0 mi West 6.9 mph - N/A   Overcast
7:35 AM 30.7 °F 22.0 °F 24.4 °F 77% 30.05 in 10.0 mi West 10.4 mph - N/A   Overcast
7:55 AM 30.2 °F 21.9 °F 24.8 °F 80% 30.05 in 10.0 mi West 9.2 mph - N/A   Mostly Cloudy
8:15 AM 30.7 °F 21.4 °F 24.4 °F 77% 30.06 in 10.0 mi West 11.5 mph - N/A   Mostly Cloudy
8:35 AM - - - N/A% - - North - - N/A   Unknown
8:55 AM 32.0 °F 23.0 °F 23.5 °F 71% 30.06 in 10.0 mi West 11.5 mph - 0.03 in   Scattered Clouds
9:15 AM 32.0 °F 23.6 °F 23.7 °F 71% 30.06 in 10.0 mi WNW 10.4 mph - N/A   Clear
9:35 AM 32.2 °F 23.2 °F 24.3 °F 73% 30.06 in 10.0 mi West 11.5 mph 16.1 mph N/A   Clear
9:55 AM 32.2 °F 22.7 °F 23.7 °F 71% 30.06 in 10.0 mi West 12.7 mph - N/A   Clear
10:15 AM 32.2 °F 22.3 °F 23.5 °F 70% 30.06 in 10.0 mi West 13.8 mph - N/A   Clear
10:35 AM 32.0 °F 23.0 °F 21.7 °F 66% 30.06 in 10.0 mi West 11.5 mph - N/A   Clear
10:55 AM 32.2 °F 23.2 °F 19.2 °F 59% 30.04 in 10.0 mi West 11.5 mph - N/A   Clear
11:15 AM 33.1 °F 23.9 °F 19.4 °F 57% 30.04 in 10.0 mi West 12.7 mph - N/A   Clear
11:35 AM 34.2 °F 26.2 °F 17.8 °F 51% 30.03 in 10.0 mi West 10.4 mph - N/A   Clear
11:55 AM 34.0 °F 25.5 °F 18.5 °F 53% 30.01 in 10.0 mi WSW 11.5 mph - N/A   Clear
12:15 PM 33.1 °F 23.9 °F 18.1 °F 54% 30.01 in 10.0 mi West 12.7 mph 17.3 mph N/A   Clear
12:35 PM 33.4 °F 24.8 °F 16.2 °F 49% 30.00 in 10.0 mi WSW 11.5 mph - N/A   Mostly Cloudy
12:55 PM 34.2 °F 24.8 °F 14.5 °F 45% 30.00 in 10.0 mi West 13.8 mph - N/A   Overcast
1:15 PM 34.9 °F 24.9 °F 14.4 °F 43% 29.99 in 10.0 mi WSW 16.1 mph - N/A   Scattered Clouds
1:35 PM 35.6 °F 25.5 °F 10.4 °F 35% 29.99 in 10.0 mi West 17.3 mph - N/A   Scattered Clouds
1:55 PM 35.6 °F 26.2 °F 14.4 °F 42% 29.99 in 10.0 mi WSW 15.0 mph 20.7 mph N/A   Scattered Clouds
2:15 PM 34.0 °F 23.8 °F 10.6 °F 38% 29.99 in 10.0 mi West 16.1 mph 25.3 mph N/A   Scattered Clouds
2:35 PM 33.8 °F 24.3 °F 11.1 °F 39% 29.99 in 10.0 mi West 13.8 mph 20.7 mph N/A   Scattered Clouds
2:55 PM 34.3 °F 24.2 °F 13.8 °F 43% 29.99 in 10.0 mi WSW 16.1 mph 21.9 mph N/A   Scattered Clouds
3:15 PM 33.8 °F 22.5 °F 13.5 °F 43% 29.99 in 10.0 mi West 19.6 mph 23.0 mph N/A   Clear
3:35 PM 34.0 °F 24.2 °F 13.8 °F 44% 30.00 in 10.0 mi West 15.0 mph 20.7 mph N/A   Scattered Clouds
3:55 PM 33.8 °F 23.5 °F 14.2 °F 45% 30.00 in 10.0 mi West 16.1 mph - N/A   Overcast
4:15 PM 33.1 °F 23.4 °F 15.4 °F 48% 30.01 in 10.0 mi West 13.8 mph 18.4 mph N/A   Overcast
4:35 PM 32.0 °F 24.8 °F 16.9 °F 54% 30.02 in 10.0 mi WSW 8.1 mph 18.4 mph N/A   Mostly Cloudy
4:55 PM 32.0 °F 24.2 °F 17.6 °F 55% 30.03 in 10.0 mi West 9.2 mph - N/A   Scattered Clouds
5:15 PM 30.9 °F 23.5 °F 18.3 °F 60% 30.04 in 10.0 mi West 8.1 mph - N/A   Scattered Clouds
5:35 PM 32.0 °F 24.2 °F 19.0 °F 59% 30.04 in 10.0 mi WSW 9.2 mph - N/A   Mostly Cloudy
5:55 PM 31.5 °F 21.8 °F 19.8 °F 62% 30.04 in 10.0 mi West 12.7 mph - N/A   Scattered Clouds
6:15 PM 31.1 °F 21.9 °F 20.7 °F 65% 30.04 in 10.0 mi West 11.5 mph 17.3 mph N/A   Scattered Clouds
6:35 PM 30.7 °F 21.4 °F 21.4 °F 68% 30.05 in 10.0 mi West 11.5 mph - N/A   Clear
6:55 PM 30.4 °F 21.0 °F 21.9 °F 71% 30.05 in 10.0 mi West 11.5 mph 18.4 mph N/A   Clear
7:15 PM 30.4 °F 20.0 °F 22.1 °F 71% 30.06 in 10.0 mi West 13.8 mph 18.4 mph N/A   Scattered Clouds
7:35 PM 30.2 °F 20.8 °F 22.1 °F 72% 30.07 in 10.0 mi WNW 11.5 mph 16.1 mph N/A   Clear
7:55 PM 29.7 °F 22.0 °F 21.4 °F 71% 30.07 in 10.0 mi WNW 8.1 mph - N/A   Scattered Clouds
8:15 PM 29.3 °F 19.6 °F 21.2 °F 72% 30.08 in 10.0 mi WNW 11.5 mph - N/A   Scattered Clouds
8:35 PM 28.6 °F 18.7 °F 21.0 °F 73% 30.08 in 10.0 mi West 11.5 mph 16.1 mph N/A   Clear
8:55 PM 28.0 °F 18.1 °F 21.0 °F 75% 30.09 in 10.0 mi West 11.5 mph 17.3 mph N/A   Clear
9:15 PM 27.5 °F 20.2 °F 21.2 °F 77% 30.09 in 10.0 mi West 6.9 mph - N/A   Clear
9:35 PM 27.3 °F 19.1 °F 21.4 °F 78% 30.11 in 10.0 mi West 8.1 mph - N/A   Clear
9:55 PM 26.8 °F 19.3 °F 21.6 °F 81% 30.10 in 10.0 mi West 6.9 mph - N/A   Clear
10:15 PM 26.2 °F 19.6 °F 21.6 °F 82% 30.10 in 10.0 mi WNW 5.8 mph - N/A   Clear
10:35 PM 25.9 °F 20.3 °F 21.6 °F 84% 30.11 in 10.0 mi WNW 4.6 mph - N/A   Clear
10:55 PM 25.3 °F 18.5 °F 21.4 °F 85% 30.12 in 10.0 mi West 5.8 mph - N/A   Clear
11:15 PM 24.8 °F 19.1 °F 21.2 °F 86% 30.12 in 10.0 mi West 4.6 mph - N/A   Clear
11:35 PM 24.8 °F 20.5 °F 21.4 °F 87% 30.12 in 10.0 mi West 3.5 mph - N/A   Mostly Cloudy
11:55 PM 24.6 °F 20.3 °F 21.9 °F 89% 30.12 in 10.0 mi WSW 3.5 mph - N/A   Overcast